Weather History for Sturgis, MI

Change the Weather History Date:

Tuesday, January 1, 2013

  Actual Average (KHAI) Record (KHAI)
Temperature  
Mean Temperature 22 °F -  
Max Temperature 26 °F 31 °F 95 °F (2007)
Min Temperature 19 °F 18 °F -11 °F (1968)
Degree Days  
Heating Degree Days 42    
Moisture  
Dew Point 16 °F    
Average Humidity 72    
Maximum Humidity 80    
Minimum Humidity 64    
Precipitation  
Precipitation 0.00 in - - ()
Sea Level Pressure  
Sea Level Pressure 30.08 in    
Wind  
Wind Speed 4 mph (NW)    
Max Wind Speed 13 mph    
Max Gust Speed 17 mph    
Visibility 10 miles    
Events      
Averages and records for this station are not official NWS values.
T = Trace of Precipitation, MM = Missing Value Source: NWS Daily Summary

Daily Weather History Graph

Daily Weather History Graph

Search for Another Location

Airport:

Trip Planner

Search our weather history database for the weather conditions in past years. The results will help you decide how hot, cold, wet, or windy it might be!

Date:

Astronomy

Jan. 01, 2013 Rise Set
Actual Time 8:09 AM EST 5:21 PM EST
Civil Twilight 7:37 AM EST 5:53 PM EST
Nautical Twilight 7:02 AM EST 6:28 PM EST
Astronomical Twilight 6:29 AM EST 7:02 PM EST
Moon 9:56 PM EST (1/1) 10:17 AM EST (1/1)
Length of Visible Light 10h 15m
Length of Day
9h 12m
Waning Gibbous, 83% of the Moon is Illuminated
Jan 1
Waning Gibbous
Jan 4
Last Quarter
Jan 11
New
Jan 18
First Quarter
Jan 26
Full

Hourly Weather History & Observations

Time (EST) Temp. Windchill Dew Point Humidity Pressure Visibility Wind Dir Wind Speed Gust Speed Precip Events Conditions
12:14 AM 26.6 °F 19.1 °F 21.2 °F 80% 30.03 in 10.0 mi NNW 6.9 mph - N/A   Overcast
12:34 AM 26.6 °F 20.0 °F 21.2 °F 80% 30.04 in 10.0 mi NNW 5.8 mph - N/A   Overcast
12:54 AM 26.6 °F 20.0 °F 19.4 °F 74% 30.03 in 10.0 mi NW 5.8 mph - N/A   Overcast
1:14 AM 26.6 °F 20.0 °F 19.4 °F 74% 30.02 in 10.0 mi NNW 5.8 mph - N/A   Overcast
1:34 AM 26.6 °F 18.2 °F 19.4 °F 74% 30.02 in 10.0 mi NNW 8.1 mph - N/A   Overcast
1:55 AM 26.6 °F 20.0 °F 19.4 °F 74% 30.03 in 10.0 mi NW 5.8 mph - N/A   Overcast
2:15 AM 26.6 °F 22.6 °F 19.4 °F 74% 30.03 in 10.0 mi NNW 3.5 mph - N/A   Overcast
2:35 AM 26.6 °F 20.0 °F 19.4 °F 74% 30.03 in 10.0 mi NNW 5.8 mph - N/A   Overcast
2:54 AM 24.8 °F - 19.4 °F 80% 30.03 in 10.0 mi Calm Calm - N/A   Overcast
3:15 AM 26.6 °F 21.2 °F 19.4 °F 74% 30.04 in 10.0 mi NNW 4.6 mph - N/A   Overcast
3:35 AM 26.6 °F - 19.4 °F 74% 30.04 in 10.0 mi Calm Calm - N/A   Overcast
3:54 AM 26.6 °F - 19.4 °F 74% 30.04 in 10.0 mi Calm Calm - N/A   Overcast
4:15 AM 24.8 °F - 19.4 °F 80% 30.04 in 10.0 mi Calm Calm - N/A   Overcast
4:34 AM 24.8 °F - 19.4 °F 80% 30.04 in 10.0 mi Calm Calm - N/A   Overcast
5:14 AM 24.8 °F - 19.4 °F 80% 30.05 in 10.0 mi Calm Calm - N/A   Overcast
5:35 AM 23.0 °F - 17.6 °F 80% 30.04 in 10.0 mi Calm Calm - N/A   Overcast
6:15 AM 24.8 °F - 17.6 °F 74% 30.04 in 10.0 mi Calm Calm - N/A   Overcast
6:35 AM 23.0 °F - 17.6 °F 80% 30.06 in 10.0 mi Calm Calm - N/A   Overcast
7:15 AM 23.0 °F - 15.8 °F 74% 30.08 in 10.0 mi Calm Calm - N/A   Overcast
7:35 AM 21.2 °F 16.4 °F 15.8 °F 80% 30.08 in 10.0 mi North 3.5 mph - N/A   Overcast
8:14 AM 23.0 °F 18.4 °F 15.8 °F 74% 30.09 in 10.0 mi North 3.5 mph - N/A   Overcast
8:34 AM 23.0 °F - 15.8 °F 74% 30.10 in 10.0 mi Calm Calm - N/A   Overcast
8:55 AM 23.0 °F - 15.8 °F 74% 30.12 in 10.0 mi Calm Calm - N/A   Overcast
9:15 AM 23.0 °F 17.0 °F 15.8 °F 74% 30.12 in 10.0 mi North 4.6 mph - N/A   Overcast
9:34 AM 23.0 °F 14.7 °F 14.0 °F 68% 30.12 in 10.0 mi North 6.9 mph - N/A   Overcast
9:55 AM 23.0 °F 14.7 °F 14.0 °F 68% 30.11 in 10.0 mi NNE 6.9 mph - N/A   Overcast
10:15 AM 23.0 °F 13.9 °F 14.0 °F 68% 30.12 in 10.0 mi NNE 8.1 mph - N/A   Overcast
10:35 AM 23.0 °F 11.7 °F 15.8 °F 74% 30.10 in 10.0 mi North 11.5 mph 16.1 mph N/A   Overcast
10:55 AM 24.8 °F 13.4 °F 15.8 °F 69% 30.09 in 10.0 mi NNE 12.7 mph 16.1 mph N/A   Scattered Clouds
11:15 AM 24.8 °F 13.4 °F 15.8 °F 69% 30.10 in 10.0 mi NE 12.7 mph 17.3 mph N/A   Clear
11:34 AM 24.8 °F 16.9 °F 15.8 °F 69% 30.11 in 10.0 mi NE 6.9 mph - N/A   Clear
11:55 AM 24.8 °F 19.1 °F 15.8 °F 69% 30.10 in 10.0 mi North 4.6 mph - N/A   Clear
12:15 PM 24.8 °F 20.5 °F 14.0 °F 64% 30.10 in 10.0 mi North 3.5 mph - N/A   Clear
12:35 PM 24.8 °F - 15.8 °F 69% 30.10 in 10.0 mi Calm Calm - N/A   Scattered Clouds
12:54 PM 24.8 °F - 15.8 °F 69% 30.11 in 10.0 mi Calm Calm - N/A   Scattered Clouds
1:14 PM 24.8 °F - 15.8 °F 69% 30.10 in 10.0 mi Calm Calm - N/A   Mostly Cloudy
1:35 PM 24.8 °F - 15.8 °F 69% 30.08 in 10.0 mi Calm Calm - N/A   Overcast
1:55 PM 24.8 °F 19.1 °F 14.0 °F 64% 30.08 in 10.0 mi WNW 4.6 mph - N/A   Overcast
2:14 PM 24.8 °F 19.1 °F 14.0 °F 64% 30.09 in 10.0 mi WNW 4.6 mph - N/A   Overcast
2:35 PM 24.8 °F 17.9 °F 15.8 °F 69% 30.09 in 10.0 mi WNW 5.8 mph - N/A   Overcast
3:15 PM 24.8 °F - 15.8 °F 69% 30.08 in 10.0 mi Calm Calm - N/A   Overcast
3:34 PM 24.8 °F - 15.8 °F 69% 30.08 in 10.0 mi Calm Calm - N/A   Overcast
3:55 PM 24.8 °F - 15.8 °F 69% 30.08 in 10.0 mi Calm Calm - N/A   Overcast
4:14 PM 24.8 °F - 15.8 °F 69% 30.08 in 10.0 mi Calm Calm - N/A   Overcast
4:35 PM 24.8 °F - 15.8 °F 69% 30.07 in 10.0 mi Calm Calm - N/A   Overcast
4:54 PM 24.8 °F - 15.8 °F 69% 30.08 in 10.0 mi Calm Calm - N/A   Overcast
5:15 PM 24.8 °F 17.9 °F 15.8 °F 69% 30.08 in 10.0 mi NW 5.8 mph - N/A   Overcast
5:34 PM 24.8 °F 20.5 °F 15.8 °F 69% 30.07 in 10.0 mi WNW 3.5 mph - N/A   Overcast
6:15 PM 24.8 °F 16.9 °F 15.8 °F 69% 30.07 in 10.0 mi NW 6.9 mph - N/A   Overcast
6:34 PM 24.8 °F 19.1 °F 15.8 °F 69% 30.08 in 10.0 mi WNW 4.6 mph - N/A   Overcast
6:55 PM 24.8 °F 20.5 °F 15.8 °F 69% 30.08 in 10.0 mi NW 3.5 mph - N/A   Overcast
7:15 PM 24.8 °F 19.1 °F 15.8 °F 69% 30.09 in 10.0 mi NW 4.6 mph - N/A   Overcast
7:35 PM 24.8 °F 16.9 °F 17.6 °F 74% 30.09 in 10.0 mi West 6.9 mph - N/A   Overcast
7:55 PM 23.0 °F 13.9 °F 15.8 °F 74% 30.10 in 10.0 mi West 8.1 mph - N/A   Overcast
8:15 PM 21.2 °F 12.6 °F 15.8 °F 80% 30.11 in 10.0 mi West 6.9 mph - N/A   Overcast
8:34 PM 21.2 °F 10.9 °F 14.0 °F 74% 30.11 in 10.0 mi WNW 9.2 mph - N/A   Scattered Clouds
8:54 PM 21.2 °F 11.7 °F 12.2 °F 68% 30.11 in 10.0 mi West 8.1 mph - N/A   Scattered Clouds
9:15 PM 21.2 °F 11.7 °F 14.0 °F 74% 30.11 in 10.0 mi WNW 8.1 mph - N/A   Mostly Cloudy
9:35 PM 21.2 °F 11.7 °F 12.2 °F 68% 30.10 in 10.0 mi WNW 8.1 mph - N/A   Mostly Cloudy
9:54 PM 21.2 °F 9.5 °F 12.2 °F 68% 30.10 in 10.0 mi NW 11.5 mph 16.1 mph N/A   Mostly Cloudy
10:15 PM 21.2 °F 12.6 °F 12.2 °F 68% 30.10 in 10.0 mi WNW 6.9 mph - N/A   Mostly Cloudy
10:35 PM 21.2 °F 10.1 °F 12.2 °F 68% 30.10 in 10.0 mi WNW 10.4 mph - N/A   Overcast
10:55 PM 19.4 °F 10.4 °F 12.2 °F 74% 30.09 in 10.0 mi NW 6.9 mph - N/A   Overcast
11:15 PM 19.4 °F 12.8 °F 12.2 °F 74% 30.09 in 10.0 mi WNW 4.6 mph - N/A   Scattered Clouds
11:35 PM 19.4 °F 14.3 °F 12.2 °F 74% 30.10 in 10.0 mi West 3.5 mph - N/A   Mostly Cloudy
11:54 PM 19.4 °F 11.5 °F 12.2 °F 74% 30.10 in 10.0 mi West 5.8 mph - N/A   Overcast